Location: Paddlesworth
(51.1000°N, 1.1333°E)
Time: 04:35:03
(UTC+00:00)

Meteor 1-20 Rocket - Pass Details

Date: 11 May 2021
Orbit: 818 x 893 km, 81.2° (Epoch: 14 June)

Event Time Altitude Azimuth Distance (km) Brightness Sun altitude
Rises 20:00:58 0° 347° (NNW) 3,445 8.2 -4.4°
Reaches altitude 10° 20:03:26 10° 348° (NNW) 2,493 7.5 -4.7°
Maximum altitude 20:09:05 87° 77° (ENE) 848 4.3 -5.4°
Drops below altitude 10° 20:14:36 10° 168° (SSE) 2,429 6.1 -6.1°
Sets 20:16:59 0° 169° (S) 3,351 6.8 -6.4°
